QPF
0.00 0.00 0.00 0.00 0.00 0.00 0.00 0.00 0.00 0.00 0.00 0.04 0.22 0.19 0.02 0.03 0.03 0.03 0.03 0.00 0.07 0.02 0.00 0.00 0.00 0.00 0.00 0.00 0.00 0.00 0.00 0.00 0.00 0.00 0.00 0.00 0.00 0.00 0.00 0.00 0.00 0.00 0.00 0.00 0.00 0.00 0.00 0.00 0.00
0.00 0.00 0.00 0.00 0.00 0.00 0.00 0.00 0.00 0.00 0.00 0.01 0.17 0.19 0.00 0.00 0.00 0.00 0.00 0.01 0.03 0.00 0.00 0.00 0.00 0.00 0.00 0.00 0.00 0.00 0.00 0.00 0.00 0.00 0.00 0.00 0.00 0.00 0.00 0.00 0.00 0.00 0.00 0.00 0.00 0.00 0.00 0.00 0.00
0.00 0.00 0.00 0.00 0.00 0.00 0.00 0.00 0.00 0.00 0.00 0.03 0.09 0.00 0.00 0.01 0.00 0.00 0.01 0.00 0.00 0.00 0.00 0.00 0.00 0.00 0.00 0.00 0.00 0.00 0.00 0.00 0.00 0.00 0.00 0.00 0.00 0.00 0.00 0.00 0.00 0.00 0.00 0.00 0.00 0.00 0.00 0.00 0.00
0.00 0.00 0.00 0.00 0.00 0.00 0.00 0.00 0.00 0.00 0.00 0.00 0.00 0.00 0.00 0.01 0.00 0.00 0.01 0.01 0.02 0.01 0.00 0.00 0.00 0.00 0.00 0.00 0.00 0.00 0.00 0.00 0.00 0.00 0.00 0.00 0.00 0.00 0.00 0.00 0.00 0.00 0.00 0.00 0.00 0.00 0.00 0.00 0.00
0.00 0.00 0.00 0.00 0.00 0.00 0.00 0.00 0.00 0.00 0.00 0.00 0.00 0.00 0.00 0.01 0.03 0.02 0.01 0.04 0.02 0.02 0.01 0.00 0.00 0.00 0.00 0.00 0.00 0.00 0.00 0.00 0.00 0.00 0.00 0.00 0.00 0.00 0.00 0.00 0.00 0.00 0.00 0.00 0.00 0.00 0.00 0.00 0.00
0.00 0.00 0.00 0.00 0.00 0.00 0.00 0.00 0.00 0.00 0.00 0.00 0.00 0.00 0.00 0.03 0.06 0.14 0.13 0.11 0.08 0.01 0.00 0.00 0.00 0.00 0.00 0.00 0.00 0.00 0.00 0.00 0.00 0.00 0.00 0.00 0.00 0.00 0.00 0.00 0.00 0.00 0.00 0.00 0.00 0.00 0.00 0.00 0.00
0.00 0.00 0.00 0.00 0.00 0.00 0.00 0.00 0.00 0.00 0.00 0.00 0.00 0.00 0.00 0.01 0.05 0.06 0.13 0.12 0.14 0.01 0.00 0.00 0.00 0.00 0.00 0.00 0.00 0.00 0.00 0.00 0.00 0.00 0.00 0.00 0.00 0.00 0.00 0.00 0.00 0.00 0.00 0.00 0.00 0.00 0.00 0.00 0.00
0.00 0.00 0.00 0.00 0.00 0.00 0.00 0.00 0.00 0.00 0.00 0.00 0.00 0.00 0.00 0.00 0.02 0.06 0.15 0.22 0.15 0.09 0.03 0.00 0.00 0.00 0.00 0.00 0.00 0.00 0.00 0.00 0.00 0.00 0.00 0.00 0.00 0.00 0.00 0.00 0.00 0.00 0.00 0.00 0.00 0.00 0.00 0.00 0.00
0.00 0.00 0.00 0.00 0.00 0.00 0.00 0.00 0.00 0.00 0.00 0.00 0.00 0.00 0.00 0.01 0.03 0.04 0.14 0.14 0.12 0.09 0.08 0.04 0.00 0.00 0.00 0.00 0.00 0.00 0.00 0.00 0.00 0.00 0.00 0.00 0.00 0.00 0.00 0.00 0.00 0.00 0.00 0.02 0.01 0.00 0.00 0.00 0.00
0.00 0.00 0.00 0.00 0.00 0.00 0.00 0.00 0.00 0.00 0.00 0.00 0.00 0.00 0.00 0.03 0.05 0.03 0.03 0.00 0.00 0.00 0.04 0.05 0.00 0.01 0.02 0.02 0.00 0.00 0.00 0.00 0.00 0.00 0.00 0.00 0.00 0.00 0.00 0.01 0.00 0.00 0.00 0.02 0.01 0.00 0.02 0.00 0.00
0.00 0.00 0.00 0.00 0.00 0.00 0.00 0.00 0.00 0.00 0.00 0.00 0.00 0.00 0.00 0.01 0.02 0.00 0.00 0.00 0.00 0.00 0.03 0.00 0.00 0.01 0.02 0.01 0.00 0.01 0.01 0.00 0.00 0.00 0.00 0.01 0.02 0.02 0.01 0.01 0.01 0.01 0.00 0.01 0.00 0.00 0.00 0.00 0.00
0.00 0.00 0.00 0.00 0.00 0.00 0.00 0.00 0.00 0.00 0.00 0.00 0.00 0.00 0.00 0.00 0.00 0.00 0.00 0.00 0.00 0.00 0.00 0.01 0.00 0.03 0.04 0.01 0.00 0.02 0.05 0.06 0.01 0.01 0.02 0.03 0.01 0.01 0.00 0.01 0.00 0.00 0.00 0.00 0.00 0.00 0.00 0.00 0.00
0.00 0.00 0.00 0.00 0.00 0.00 0.00 0.00 0.00 0.00 0.00 0.00 0.00 0.00 0.00 0.00 0.00 0.00 0.01 0.03 0.02 0.01 0.05 0.04 0.00 0.06 0.07 0.01 0.01 0.00 0.01 0.03 0.03 0.09 0.04 0.02 0.01 0.00 0.00 0.00 0.00 0.00 0.00 0.00 0.00 0.00 0.00 0.00 0.00
0.00 0.00 0.00 0.00 0.00 0.00 0.00 0.00 0.00 0.00 0.00 0.00 0.00 0.00 0.00 0.00 0.00 0.00 0.00 0.01 0.03 0.03 0.03 0.03 0.02 0.08 0.09 0.06 0.04 0.03 0.01 0.01 0.00 0.03 0.03 0.01 0.00 0.00 0.00 0.00 0.00 0.00 0.00 0.00 0.00 0.00 0.00 0.00 0.00
0.00 0.00 0.00 0.00 0.00 0.00 0.00 0.00 0.00 0.00 0.00 0.00 0.00 0.00 0.00 0.00 0.00 0.00 0.00 0.00 0.00 0.00 0.00 0.00 0.00 0.00 0.01 0.03 0.02 0.01 0.01 0.00 0.00 0.00 0.01 0.01 0.00 0.00 0.00 0.00 0.00 0.00 0.00 0.00 0.00 0.00 0.00 0.00 0.00
0.00 0.00 0.00 0.00 0.00 0.00 0.00 0.00 0.00 0.00 0.00 0.00 0.00 0.00 0.00 0.00 0.00 0.00 0.00 0.00 0.00 0.00 0.00 0.00 0.00 0.00 0.00 0.00 0.00 0.00 0.00 0.00 0.00 0.00 0.01 0.00 0.00 0.00 0.00 0.00 0.00 0.00 0.00 0.00 0.00 0.00 0.00 0.00 0.00
0.00 0.00 0.00 0.00 0.00 0.00 0.00 0.00 0.00 0.00 0.00 0.00 0.00 0.00 0.00 0.00 0.00 0.00 0.00 0.00 0.00 0.00 0.00 0.00 0.00 0.00 0.00 0.00 0.00 0.00 0.00 0.00 0.00 0.00 0.00 0.00 0.00 0.00 0.00 0.00 0.00 0.00 0.00 0.00 0.00 0.00 0.00 0.00 0.00
0.00 0.00 0.00 0.00 0.00 0.00 0.00 0.00 0.00 0.00 0.00 0.00 0.00 0.00 0.00 0.00 0.00 0.00 0.00 0.00 0.00 0.00 0.00 0.00 0.00 0.00 0.00 0.00 0.00 0.00 0.00 0.00 0.00 0.00 0.00 0.00 0.00 0.00 0.00 0.00 0.00 0.00 0.00 0.00 0.00 0.00 0.00 0.00 0.00
0.00 0.00 0.00 0.00 0.00 0.00 0.00 0.00 0.00 0.00 0.00 0.00 0.00 0.00 0.00 0.00 0.00 0.00 0.00 0.00 0.00 0.00 0.00 0.00 0.00 0.00 0.00 0.00 0.00 0.00 0.00 0.00 0.01 0.02 0.01 0.00 0.00 0.00 0.00 0.00 0.00 0.00 0.00 0.00 0.00 0.00 0.00 0.00 0.00
0.00 0.00 0.00 0.00 0.00 0.00 0.00 0.00 0.00 0.00 0.00 0.00 0.00 0.00 0.00 0.00 0.00 0.00 0.00 0.00 0.00 0.00 0.00 0.00 0.00 0.00 0.00 0.00 0.00 0.00 0.00 0.00 0.01 0.03 0.08 0.08 0.07 0.05 0.04 0.05 0.04 0.01 0.00 0.00 0.00 0.00 0.00 0.00 0.00
0.00 0.00 0.00 0.00 0.00 0.00 0.00 0.00 0.00 0.00 0.00 0.00 0.00 0.00 0.00 0.00 0.00 0.00 0.00 0.00 0.00 0.00 0.00 0.00 0.00 0.00 0.00 0.00 0.00 0.00 0.00 0.00 0.00 0.00 0.01 0.02 0.03 0.04 0.04 0.05 0.06 0.02 0.00 0.00 0.00 0.01 0.01 0.00 0.00
0.00 0.00 0.00 0.00 0.00 0.00 0.00 0.00 0.00 0.00 0.00 0.00 0.00 0.00 0.00 0.00 0.00 0.00 0.00 0.00 0.00 0.00 0.00 0.00 0.00 0.00 0.00 0.00 0.00 0.00 0.00 0.00 0.00 0.00 0.00 0.00 0.00 0.00 0.01 0.01 0.02 0.01 0.02 0.01 0.00 0.01 0.01 0.00 0.00
0.00 0.00 0.00 0.00 0.00 0.00 0.00 0.00 0.00 0.00 0.00 0.00 0.00 0.00 0.00 0.00 0.00 0.00 0.00 0.00 0.00 0.00 0.00 0.00 0.00 0.00 0.00 0.00 0.00 0.00 0.00 0.00 0.00 0.00 0.00 0.00 0.00 0.00 0.00 0.00 0.00 0.00 0.00 0.00 0.01 0.01 0.02 0.02 0.00
0.00 0.00 0.00 0.00 0.00 0.00 0.00 0.00 0.00 0.00 0.00 0.00 0.00 0.00 0.00 0.00 0.00 0.00 0.00 0.00 0.00 0.00 0.00 0.00 0.00 0.00 0.00 0.00 0.00 0.00 0.00 0.00 0.00 0.00 0.00 0.00 0.00 0.00 0.00 0.00 0.00 0.00 0.00 0.00 0.00 0.00 0.00 0.00 0.00
0.00 0.00 0.00 0.00 0.00 0.00 0.00 0.00 0.00 0.00 0.00 0.00 0.00 0.00 0.00 0.00 0.00 0.00 0.00 0.00 0.00 0.00 0.00 0.00 0.00 0.00 0.00 0.00 0.00 0.00 0.00 0.00 0.00 0.00 0.00 0.00 0.00 0.00 0.00 0.00 0.00 0.00 0.00 0.00 0.00 0.00 0.00 0.00 0.00
0.00 0.00 0.00 0.00 0.00 0.00 0.00 0.00 0.00 0.00 0.00 0.00 0.00 0.00 0.00 0.00 0.00 0.00 0.00 0.00 0.00 0.00 0.00 0.00 0.00 0.00 0.00 0.00 0.00 0.00 0.00 0.00 0.00 0.01 0.01 0.02 0.01 0.00 0.00 0.00 0.00 0.00 0.00 0.00 0.00 0.00 0.00 0.00 0.00
0.00 0.00 0.00 0.00 0.00 0.00 0.00 0.00 0.00 0.00 0.00 0.00 0.00 0.00 0.00 0.00 0.00 0.00 0.00 0.00 0.00 0.00 0.00 0.00 0.00 0.00 0.00 0.00 0.00 0.00 0.00 0.00 0.00 0.00 0.01 0.00 0.00 0.00 0.00 0.00 0.00 0.00 0.00 0.00 0.00 0.00 0.00 0.00 0.00
0.00 0.00 0.00 0.00 0.00 0.00 0.00 0.00 0.00 0.00 0.00 0.00 0.00 0.00 0.00 0.00 0.00 0.00 0.00 0.00 0.00 0.00 0.00 0.00 0.00 0.00 0.00 0.00 0.00 0.00 0.00 0.00 0.00 0.00 0.00 0.00 0.00 0.00 0.00 0.00 0.00 0.00 0.00 0.00 0.00 0.00 0.00 0.00 0.00
0.00 0.00 0.00 0.00 0.00 0.00 0.00 0.00 0.00 0.00 0.00 0.00 0.00 0.00 0.00 0.00 0.00 0.00 0.00 0.00 0.00 0.00 0.00 0.00 0.00 0.00 0.00 0.00 0.00 0.00 0.00 0.00 0.00 0.00 0.00 0.00 0.00 0.00 0.00 0.00 0.00 0.00 0.00 0.00 0.00 0.00 0.00 0.00 0.00
0.00 0.00 0.00 0.00 0.00 0.00 0.00 0.00 0.00 0.00 0.00 0.00 0.00 0.00 0.00 0.00 0.00 0.00 0.00 0.00 0.00 0.00 0.00 0.00 0.00 0.00 0.00 0.00 0.00 0.00 0.00 0.00 0.00 0.00 0.00 0.00 0.00 0.00 0.00 0.00 0.00 0.00 0.00 0.00 0.00 0.00 0.00 0.00 0.00
MSLP
1011.81 1012.00 1012.23 1012.37 1013.36 1014.45 1015.51 1015.08 1015.04 1015.09 1016.04 1017.20 1016.68 1015.66 1012.66 1012.27 1012.74 1013.97 1013.85 1013.94 1013.97 1014.66 1014.70 1014.68 1014.74 1014.92 1015.18 1015.30 1015.45 1015.82 1016.13 1016.23 1016.49 1016.75 1016.78 1016.84 1017.07 1016.86 1016.83 1016.99 1017.21 1017.11 1016.96 1016.93 1016.94 1016.97 1017.04 1017.12 1017.29
1011.58 1011.68 1012.23 1012.51 1013.66 1014.84 1015.33 1014.89 1014.88 1014.43 1015.14 1014.77 1014.34 1013.88 1012.46 1012.77 1012.46 1013.30 1013.96 1014.33 1014.17 1014.55 1014.88 1014.96 1015.20 1015.44 1015.64 1015.72 1015.78 1015.86 1016.17 1016.34 1016.49 1016.72 1016.93 1017.12 1017.24 1017.31 1017.15 1017.12 1017.23 1017.35 1017.30 1017.22 1017.11 1017.10 1017.24 1017.29 1017.38
1011.53 1011.44 1012.46 1013.07 1014.26 1014.52 1014.31 1014.22 1014.19 1014.06 1014.67 1014.51 1013.42 1012.80 1012.74 1012.78 1012.77 1013.40 1013.32 1014.04 1014.82 1015.26 1015.15 1015.15 1015.52 1015.83 1016.01 1016.22 1016.17 1016.16 1016.34 1016.58 1016.46 1016.69 1016.72 1017.01 1017.27 1017.48 1017.45 1017.30 1017.19 1017.27 1017.27 1017.29 1017.30 1017.26 1017.38 1017.46 1017.47
1011.31 1011.86 1012.70 1013.17 1013.94 1013.36 1012.96 1013.14 1013.49 1013.99 1014.31 1013.74 1012.82 1012.69 1012.80 1012.97 1013.56 1013.35 1013.72 1014.15 1015.31 1015.85 1015.85 1016.04 1015.82 1015.89 1016.20 1016.44 1016.50 1016.54 1016.56 1016.69 1016.74 1016.82 1016.72 1016.89 1017.01 1017.26 1017.43 1017.34 1017.30 1017.25 1017.39 1017.37 1017.37 1017.47 1017.43 1017.34 1017.38
1011.62 1012.84 1013.38 1013.55 1013.26 1012.61 1012.17 1011.71 1012.65 1013.41 1013.61 1013.14 1013.03 1012.85 1013.43 1014.28 1014.87 1014.16 1014.75 1015.63 1015.82 1016.37 1016.22 1016.48 1016.67 1016.64 1016.69 1016.71 1016.81 1016.90 1017.06 1017.02 1017.03 1017.02 1017.14 1017.21 1017.30 1017.33 1017.47 1017.55 1017.53 1017.50 1017.42 1017.47 1017.53 1017.69 1017.58 1017.45 1017.28
1012.23 1013.14 1013.96 1013.78 1012.71 1011.91 1011.70 1011.76 1012.40 1013.17 1013.23 1013.28 1013.24 1013.43 1014.68 1015.86 1015.86 1016.75 1016.62 1017.11 1017.06 1016.98 1017.17 1017.34 1017.46 1017.54 1017.43 1017.07 1017.08 1017.15 1017.21 1017.22 1017.25 1017.27 1017.41 1017.47 1017.51 1017.59 1017.62 1017.68 1017.63 1017.71 1017.81 1017.78 1017.71 1017.36 1017.41 1017.52 1017.33
1012.34 1013.58 1013.89 1013.30 1011.97 1011.87 1011.75 1011.76 1012.22 1013.09 1013.30 1013.14 1013.16 1013.70 1015.16 1016.28 1016.60 1016.44 1017.00 1017.56 1017.49 1017.23 1016.97 1016.94 1017.30 1017.52 1017.47 1017.66 1017.50 1017.29 1017.19 1017.14 1017.27 1017.40 1017.47 1017.55 1017.62 1017.73 1017.69 1017.61 1017.59 1017.54 1017.61 1017.78 1017.70 1017.56 1017.60 1017.36 1017.17
1012.06 1013.21 1013.54 1012.55 1011.61 1011.06 1010.84 1011.44 1012.30 1012.79 1013.02 1012.51 1012.68 1013.28 1014.93 1016.30 1015.51 1015.93 1016.70 1017.17 1016.78 1017.31 1017.08 1016.28 1016.27 1016.58 1016.82 1017.50 1017.70 1017.51 1017.20 1017.03 1016.99 1017.04 1017.01 1016.99 1017.19 1017.45 1017.40 1017.45 1017.33 1017.28 1017.44 1017.49 1017.52 1017.50 1017.42 1017.10 1016.88
1011.59 1013.03 1013.08 1012.15 1011.18 1011.52 1011.21 1011.34 1011.83 1011.90 1012.43 1012.64 1012.57 1013.17 1015.47 1016.01 1015.54 1015.81 1016.10 1016.45 1016.57 1016.84 1017.22 1018.16 1017.15 1015.89 1016.70 1016.59 1016.98 1017.20 1017.08 1017.05 1017.16 1017.12 1017.03 1017.08 1017.00 1017.11 1017.10 1017.17 1017.24 1017.25 1017.04 1016.99 1017.23 1017.13 1017.00 1016.79 1016.61
1011.87 1013.06 1012.30 1011.34 1011.14 1011.15 1011.45 1011.16 1011.70 1011.98 1012.44 1012.60 1012.71 1014.16 1014.98 1015.36 1015.81 1015.98 1016.02 1016.41 1017.70 1017.89 1018.72 1018.22 1017.11 1016.22 1016.03 1016.22 1015.59 1016.23 1016.83 1016.94 1016.81 1016.75 1016.94 1016.97 1016.93 1016.90 1016.70 1016.80 1016.79 1016.66 1016.67 1016.69 1016.66 1016.64 1016.62 1016.78 1016.54
1011.44 1011.87 1011.38 1011.23 1010.76 1010.88 1011.13 1011.49 1011.77 1011.96 1012.87 1013.07 1013.85 1014.78 1015.25 1015.79 1016.09 1016.69 1017.19 1017.48 1018.11 1018.13 1018.08 1018.27 1017.58 1016.42 1016.31 1016.20 1016.06 1016.60 1016.60 1016.84 1016.92 1016.76 1016.52 1016.71 1016.90 1016.94 1016.59 1016.59 1016.21 1015.97 1016.19 1016.43 1016.36 1016.46 1016.49 1016.62 1016.69
1010.89 1010.40 1010.57 1010.44 1010.55 1010.81 1011.02 1011.41 1012.02 1012.39 1013.80 1013.99 1014.41 1015.02 1015.68 1016.46 1017.08 1017.76 1018.00 1018.27 1018.48 1018.69 1018.98 1018.60 1017.94 1017.27 1016.92 1016.41 1016.85 1017.28 1017.14 1017.36 1016.81 1016.75 1016.69 1016.84 1016.54 1016.93 1016.56 1016.70 1016.17 1015.90 1015.95 1016.23 1016.29 1016.11 1016.31 1016.57 1016.47
1010.07 1010.29 1010.09 1010.18 1010.47 1010.96 1011.13 1011.57 1012.19 1013.67 1014.24 1014.49 1014.79 1015.44 1016.07 1016.74 1017.69 1018.29 1018.46 1018.52 1019.01 1019.49 1019.70 1019.43 1018.76 1018.22 1017.94 1018.15 1018.10 1017.96 1017.73 1017.49 1016.79 1016.83 1016.77 1017.11 1016.89 1016.84 1016.81 1016.83 1016.50 1016.32 1015.94 1016.05 1016.26 1016.33 1016.51 1016.56 1016.27
1009.80 1009.72 1010.19 1010.27 1010.78 1011.09 1011.54 1012.15 1012.05 1014.00 1014.32 1015.27 1015.41 1016.32 1016.90 1017.27 1017.95 1018.36 1018.74 1019.17 1019.15 1019.20 1019.10 1019.45 1019.71 1019.28 1019.04 1019.00 1018.91 1018.65 1018.20 1017.44 1016.99 1017.02 1016.99 1017.25 1017.07 1016.98 1017.24 1017.24 1017.07 1016.84 1016.49 1016.33 1016.48 1016.40 1016.53 1016.40 1016.19
1009.86 1010.11 1010.50 1010.59 1010.46 1011.30 1011.44 1012.75 1012.96 1013.82 1013.75 1015.26 1016.11 1016.89 1017.33 1017.80 1018.18 1018.59 1019.10 1019.42 1019.76 1019.84 1019.67 1019.70 1019.75 1019.62 1019.49 1019.32 1019.27 1018.60 1018.25 1017.73 1017.44 1017.10 1017.07 1016.86 1017.11 1017.25 1017.33 1017.31 1017.33 1017.18 1016.93 1016.79 1016.80 1016.88 1016.90 1016.65 1016.20
1010.74 1010.91 1011.28 1010.85 1010.78 1010.98 1011.20 1013.08 1013.28 1013.74 1013.94 1015.33 1015.97 1016.79 1017.25 1017.92 1017.97 1018.36 1018.71 1019.01 1019.31 1019.44 1019.65 1019.70 1019.62 1019.68 1019.58 1019.46 1019.07 1018.56 1018.32 1018.11 1017.69 1017.44 1017.35 1017.15 1017.08 1017.19 1017.41 1017.50 1017.35 1017.27 1017.07 1017.02 1016.99 1017.02 1017.08 1016.87 1016.64
1012.55 1012.31 1011.79 1011.06 1010.80 1010.86 1011.85 1013.30 1013.46 1013.83 1014.27 1015.79 1016.37 1016.69 1017.17 1017.77 1018.00 1018.26 1018.59 1018.91 1019.05 1019.10 1019.28 1019.46 1019.38 1019.46 1019.45 1019.25 1019.14 1019.07 1018.85 1018.54 1018.45 1018.09 1017.85 1017.80 1017.41 1017.38 1017.18 1017.39 1017.45 1017.29 1017.43 1017.32 1017.20 1017.09 1017.09 1017.13 1016.74
1013.49 1013.15 1012.42 1011.87 1011.34 1011.15 1012.39 1013.17 1013.77 1014.18 1014.69 1015.98 1016.66 1017.14 1017.47 1017.85 1018.23 1018.12 1018.50 1018.79 1018.90 1018.83 1018.92 1019.05 1019.04 1019.09 1019.00 1018.76 1018.56 1018.50 1018.52 1018.55 1018.61 1018.70 1018.68 1018.61 1018.54 1018.57 1018.23 1017.73 1017.54 1017.64 1017.53 1017.34 1017.21 1017.34 1017.22 1017.12 1016.95
1013.44 1013.64 1013.57 1013.05 1012.51 1012.25 1012.93 1013.51 1013.82 1014.15 1015.01 1016.03 1016.86 1017.38 1017.77 1018.00 1018.21 1018.01 1018.30 1018.43 1018.75 1018.79 1018.81 1018.83 1018.87 1018.90 1018.66 1018.73 1018.71 1018.59 1018.93 1018.81 1018.78 1018.83 1018.63 1018.80 1018.65 1018.55 1018.70 1018.73 1018.34 1017.91 1017.81 1017.32 1017.04 1017.15 1017.33 1017.18 1016.90
1013.66 1014.03 1014.12 1013.54 1012.97 1013.17 1013.91 1014.21 1014.05 1014.76 1015.54 1015.90 1016.64 1017.54 1017.94 1018.23 1018.40 1018.18 1018.33 1018.41 1018.58 1018.52 1018.59 1018.62 1018.90 1019.19 1019.24 1019.24 1019.52 1019.24 1018.75 1018.54 1018.75 1018.68 1018.28 1018.38 1018.32 1018.63 1018.71 1019.10 1018.85 1018.37 1018.09 1017.72 1017.13 1017.03 1017.26 1017.29 1017.08
1014.33 1014.61 1014.70 1014.82 1014.33 1014.11 1014.30 1014.85 1014.99 1015.22 1015.59 1016.49 1016.87 1017.04 1017.55 1017.94 1018.30 1018.33 1018.39 1018.39 1018.46 1018.59 1018.81 1019.24 1019.16 1019.09 1018.92 1018.73 1018.78 1018.97 1019.28 1019.11 1018.94 1018.84 1018.66 1018.36 1017.86 1017.94 1017.92 1018.72 1019.15 1017.85 1018.53 1017.89 1016.77 1016.75 1017.05 1017.22 1017.02
1014.44 1014.48 1014.68 1015.01 1015.44 1015.68 1015.58 1016.65 1016.11 1016.02 1016.41 1016.85 1017.13 1017.30 1017.79 1018.11 1018.10 1018.16 1018.16 1018.62 1019.03 1018.90 1019.20 1019.13 1018.82 1018.69 1018.64 1018.70 1018.76 1018.69 1018.86 1018.99 1018.33 1018.10 1018.04 1017.95 1017.64 1017.36 1017.18 1017.37 1017.17 1017.00 1017.76 1017.48 1016.16 1016.28 1016.59 1016.82 1016.97
1014.41 1014.58 1015.07 1015.46 1016.15 1016.66 1016.76 1017.20 1017.45 1017.40 1017.46 1017.64 1017.83 1017.92 1018.03 1018.03 1018.14 1018.55 1018.50 1018.76 1018.78 1018.77 1018.82 1018.57 1018.58 1018.74 1018.62 1018.70 1018.71 1018.66 1018.57 1018.31 1017.70 1017.67 1017.64 1017.66 1017.53 1017.21 1017.09 1017.05 1016.98 1017.17 1017.33 1016.96 1016.57 1016.53 1016.72 1016.82 1016.52
1014.59 1015.34 1015.95 1016.75 1017.41 1018.40 1018.06 1018.04 1018.82 1018.30 1018.10 1017.95 1018.03 1018.21 1018.48 1018.64 1018.70 1018.65 1018.69 1018.64 1018.78 1018.73 1018.71 1018.83 1018.90 1018.77 1018.52 1018.45 1018.33 1018.41 1018.31 1018.03 1017.86 1017.52 1017.48 1017.09 1016.86 1016.79 1016.67 1016.56 1016.55 1016.58 1016.62 1016.53 1016.38 1016.51 1016.60 1016.70 1016.75
1015.36 1017.09 1018.28 1019.12 1019.70 1019.72 1018.70 1018.64 1019.07 1018.40 1017.93 1017.88 1018.21 1018.45 1018.98 1018.94 1018.95 1019.00 1018.84 1018.80 1019.05 1019.04 1019.26 1019.37 1019.16 1018.99 1018.74 1018.61 1018.47 1018.42 1018.29 1018.12 1018.12 1017.85 1017.51 1017.07 1016.54 1016.40 1016.25 1016.28 1016.17 1015.77 1015.71 1015.67 1015.90 1016.23 1016.49 1016.56 1016.62
1016.22 1017.80 1019.48 1020.78 1021.57 1020.78 1019.39 1019.47 1018.96 1018.24 1017.91 1017.82 1018.23 1018.81 1019.15 1019.21 1019.31 1019.24 1019.07 1019.43 1019.58 1019.68 1019.42 1019.26 1019.25 1019.17 1018.92 1018.72 1018.58 1018.34 1018.16 1017.94 1017.70 1017.38 1017.02 1016.69 1016.37 1015.96 1015.73 1015.81 1015.82 1015.74 1015.45 1015.41 1015.55 1015.82 1015.94 1016.17 1016.33
1016.61 1017.94 1018.89 1020.51 1021.71 1021.69 1020.73 1019.79 1018.83 1018.47 1018.35 1018.43 1018.89 1019.25 1019.57 1019.59 1019.61 1019.79 1019.91 1019.99 1020.05 1019.98 1019.97 1019.85 1019.60 1019.34 1019.11 1018.93 1018.54 1018.16 1017.90 1017.67 1017.38 1016.89 1016.46 1015.93 1015.76 1015.58 1015.38 1015.39 1015.32 1015.38 1015.28 1015.47 1015.62 1015.57 1015.47 1015.56 1015.67
1016.31 1017.60 1019.29 1021.06 1022.46 1022.69 1021.61 1020.49 1019.62 1019.07 1018.86 1019.35 1019.63 1019.86 1019.97 1020.09 1020.27 1020.42 1020.35 1020.29 1020.27 1020.13 1020.06 1019.92 1019.67 1019.49 1019.07 1018.65 1018.44 1018.13 1017.91 1017.56 1017.19 1016.82 1016.50 1016.18 1015.80 1015.57 1015.19 1014.94 1014.93 1014.97 1015.03 1015.11 1015.11 1015.08 1015.08 1015.23 1015.17
1016.86 1017.89 1019.65 1021.15 1022.45 1022.94 1022.73 1020.84 1019.53 1019.11 1019.28 1019.75 1020.24 1020.53 1020.60 1020.78 1020.65 1020.48 1020.46 1020.60 1020.58 1020.51 1020.32 1020.08 1019.76 1019.48 1019.23 1018.92 1018.63 1018.24 1017.92 1017.52 1017.09 1016.67 1016.27 1015.92 1015.48 1015.11 1014.89 1014.59 1014.44 1014.40 1014.44 1014.48 1014.66 1014.74 1014.70 1014.76 1014.59
1016.78 1017.81 1019.34 1021.46 1022.50 1022.87 1022.58 1021.00 1019.50 1019.70 1019.75 1020.08 1020.63 1020.50 1020.50 1020.59 1020.66 1020.60 1020.73 1020.97 1020.92 1020.67 1020.33 1020.14 1019.99 1019.84 1019.59 1019.12 1018.59 1018.10 1017.69 1017.26 1016.77 1016.29 1015.87 1015.48 1015.05 1014.68 1014.35 1014.07 1013.93 1013.92 1013.87 1013.92 1014.06 1014.13 1014.02 1014.10 1014.12
Thickness
5823 5821 5820 5810 5776 5755 5735 5754 5771 5762 5751 5741 5749 5744 5783 5792 5778 5752 5796 5797 5797 5790 5787 5787 5785 5783 5781 5781 5780 5778 5776 5775 5773 5770 5770 5770 5767 5769 5770 5769 5765 5766 5766 5766 5765 5764 5762 5761 5759
5823 5824 5814 5798 5757 5733 5736 5756 5758 5768 5764 5768 5764 5767 5785 5773 5800 5791 5787 5792 5791 5788 5785 5784 5779 5777 5775 5775 5776 5776 5773 5772 5770 5768 5766 5765 5764 5763 5765 5766 5764 5761 5762 5762 5763 5762 5759 5758 5756
5823 5824 5798 5774 5744 5738 5741 5760 5766 5773 5767 5765 5775 5790 5789 5781 5796 5793 5797 5792 5784 5780 5779 5776 5774 5771 5770 5768 5770 5771 5769 5766 5768 5765 5766 5763 5760 5759 5759 5761 5763 5760 5759 5758 5758 5758 5755 5753 5754
5818 5809 5797 5761 5752 5768 5769 5773 5776 5770 5769 5778 5790 5780 5789 5793 5789 5793 5791 5783 5774 5769 5769 5765 5767 5767 5764 5763 5762 5763 5764 5763 5763 5762 5765 5763 5761 5759 5757 5758 5758 5758 5755 5753 5753 5751 5752 5752 5751
5815 5790 5760 5752 5756 5775 5782 5792 5783 5772 5772 5783 5786 5777 5775 5778 5775 5784 5775 5765 5764 5760 5762 5759 5757 5758 5757 5756 5756 5756 5755 5756 5755 5756 5755 5755 5754 5754 5752 5751 5751 5751 5751 5749 5747 5745 5745 5748 5752
5791 5783 5744 5729 5754 5780 5786 5790 5783 5774 5777 5781 5780 5774 5763 5760 5763 5757 5761 5750 5751 5755 5753 5750 5750 5750 5748 5750 5750 5751 5751 5751 5752 5752 5750 5749 5749 5748 5748 5747 5747 5746 5744 5742 5742 5745 5746 5747 5747
5784 5763 5746 5751 5767 5771 5778 5789 5778 5770 5770 5773 5785 5770 5762 5756 5760 5763 5758 5750 5747 5748 5752 5754 5750 5748 5748 5745 5745 5746 5747 5748 5748 5747 5747 5746 5745 5744 5744 5745 5745 5744 5742 5738 5738 5742 5743 5743 5744
5791 5769 5751 5759 5769 5779 5794 5789 5783 5775 5768 5792 5789 5767 5758 5753 5768 5766 5758 5752 5754 5747 5748 5757 5758 5752 5750 5744 5741 5744 5746 5747 5747 5746 5748 5748 5746 5743 5743 5741 5743 5742 5739 5738 5740 5739 5737 5740 5742
5807 5754 5738 5760 5773 5773 5790 5785 5789 5796 5782 5784 5788 5779 5765 5763 5771 5767 5765 5761 5755 5751 5746 5740 5749 5757 5750 5748 5747 5747 5745 5743 5741 5742 5742 5744 5744 5743 5742 5740 5738 5737 5738 5740 5737 5737 5737 5738 5739
5781 5752 5768 5791 5792 5784 5786 5788 5788 5783 5777 5778 5784 5778 5774 5771 5767 5766 5765 5759 5743 5743 5734 5739 5750 5755 5753 5750 5755 5752 5749 5743 5743 5743 5743 5742 5740 5739 5739 5737 5736 5736 5736 5736 5735 5735 5735 5731 5734
5788 5761 5791 5796 5801 5800 5792 5788 5792 5778 5762 5776 5767 5764 5767 5763 5759 5753 5751 5748 5740 5741 5740 5737 5741 5750 5751 5752 5756 5749 5747 5742 5740 5739 5742 5738 5735 5734 5735 5734 5736 5736 5733 5732 5732 5731 5730 5728 5727
5785 5794 5797 5806 5803 5798 5792 5795 5782 5779 5761 5772 5772 5768 5762 5753 5745 5740 5737 5735 5736 5731 5728 5729 5735 5740 5744 5749 5745 5739 5737 5733 5735 5736 5734 5732 5732 5728 5731 5729 5731 5731 5729 5726 5725 5728 5724 5722 5722
5792 5796 5803 5801 5798 5794 5794 5785 5783 5760 5765 5768 5768 5763 5758 5750 5740 5733 5730 5730 5725 5721 5716 5719 5723 5725 5730 5728 5725 5726 5726 5726 5729 5727 5726 5719 5720 5720 5719 5718 5720 5720 5723 5721 5719 5717 5715 5714 5716
5805 5802 5799 5800 5791 5791 5780 5779 5786 5765 5766 5758 5759 5752 5750 5746 5739 5733 5729 5724 5723 5722 5721 5712 5707 5710 5712 5711 5710 5711 5713 5717 5718 5717 5714 5710 5710 5709 5704 5704 5704 5706 5708 5710 5708 5708 5706 5707 5708
5804 5789 5787 5789 5793 5781 5784 5762 5761 5768 5771 5755 5750 5747 5744 5741 5736 5728 5723 5719 5715 5712 5711 5708 5702 5699 5697 5695 5693 5697 5699 5703 5704 5704 5702 5702 5699 5696 5694 5692 5689 5689 5691 5693 5692 5692 5693 5694 5696
5782 5776 5753 5777 5783 5786 5775 5735 5763 5767 5764 5751 5751 5745 5741 5736 5735 5730 5726 5718 5713 5708 5704 5702 5698 5692 5689 5687 5689 5690 5689 5689 5692 5691 5690 5688 5687 5684 5682 5679 5678 5676 5678 5678 5677 5676 5676 5679 5681
5749 5735 5749 5766 5781 5780 5762 5739 5760 5760 5757 5743 5741 5743 5740 5732 5731 5727 5723 5717 5712 5709 5702 5695 5691 5688 5684 5680 5677 5672 5670 5670 5671 5674 5673 5671 5671 5669 5670 5667 5665 5666 5663 5662 5663 5663 5663 5663 5667
5733 5737 5744 5750 5772 5773 5748 5743 5752 5753 5748 5736 5735 5735 5734 5729 5723 5724 5720 5715 5712 5708 5701 5694 5689 5682 5678 5675 5673 5669 5665 5658 5655 5653 5651 5651 5650 5648 5649 5651 5649 5648 5649 5649 5649 5649 5651 5652 5654
5747 5738 5737 5749 5760 5760 5745 5737 5743 5749 5738 5731 5727 5725 5723 5721 5719 5721 5716 5711 5705 5700 5697 5692 5685 5678 5674 5669 5661 5654 5648 5645 5642 5638 5636 5633 5632 5633 5630 5627 5629 5628 5628 5634 5638 5636 5634 5636 5641
5741 5729 5727 5746 5755 5749 5734 5731 5740 5739 5728 5731 5725 5718 5714 5709 5708 5710 5704 5700 5694 5690 5686 5682 5675 5667 5660 5654 5646 5643 5638 5631 5625 5623 5620 5619 5619 5616 5615 5609 5610 5611 5612 5614 5619 5620 5620 5622 5624
5728 5723 5724 5722 5735 5739 5734 5716 5723 5733 5726 5720 5719 5719 5711 5705 5700 5699 5694 5691 5685 5676 5669 5660 5654 5649 5645 5642 5634 5627 5619 5614 5605 5598 5596 5596 5598 5598 5601 5598 5589 5598 5596 5598 5608 5609 5609 5608 5611
5719 5737 5733 5724 5708 5690 5725 5671 5703 5712 5710 5711 5709 5705 5700 5697 5696 5691 5690 5679 5669 5661 5652 5646 5642 5637 5632 5623 5614 5608 5599 5592 5590 5585 5578 5573 5574 5577 5581 5586 5585 5587 5585 5587 5598 5602 5599 5597 5598
5723 5741 5728 5724 5706 5701 5697 5676 5679 5695 5694 5696 5695 5695 5693 5693 5691 5685 5675 5667 5659 5652 5644 5638 5630 5622 5615 5605 5594 5586 5578 5572 5571 5568 5563 5557 5556 5557 5557 5559 5564 5568 5563 5569 5576 5580 5582 5585 5591
5735 5723 5712 5694 5686 5662 5689 5673 5659 5675 5683 5686 5688 5688 5687 5681 5674 5670 5667 5662 5653 5647 5639 5630 5621 5614 5604 5592 5581 5570 5564 5559 5554 5554 5551 5552 5551 5546 5543 5544 5546 5548 5550 5553 5559 5563 5567 5570 5574
5712 5679 5649 5656 5645 5653 5680 5663 5658 5678 5686 5685 5682 5680 5669 5667 5663 5661 5658 5651 5646 5638 5629 5620 5608 5598 5589 5579 5569 5559 5552 5546 5541 5539 5538 5539 5541 5539 5535 5532 5531 5533 5536 5540 5543 5548 5551 5555 5558
5704 5681 5641 5648 5630 5646 5671 5651 5656 5682 5688 5686 5679 5667 5663 5661 5658 5658 5653 5642 5635 5624 5616 5606 5593 5581 5572 5561 5553 5547 5542 5537 5532 5529 5529 5528 5527 5528 5527 5523 5519 5517 5520 5523 5529 5533 5539 5543 5543
5697 5671 5684 5656 5650 5641 5649 5668 5675 5682 5681 5678 5666 5661 5659 5658 5652 5644 5634 5625 5616 5605 5592 5580 5570 5560 5552 5545 5541 5537 5533 5527 5523 5522 5524 5524 5522 5519 5518 5515 5512 5508 5509 5510 5513 5520 5528 5530 5533
5701 5696 5658 5636 5634 5634 5637 5649 5641 5663 5664 5656 5650 5648 5649 5643 5633 5626 5618 5610 5601 5590 5576 5565 5554 5545 5539 5535 5527 5523 5519 5517 5514 5513 5512 5511 5511 5510 5510 5509 5506 5503 5501 5502 5506 5512 5516 5519 5522
5683 5672 5660 5646 5629 5609 5614 5635 5660 5662 5657 5645 5642 5638 5635 5625 5620 5615 5607 5595 5584 5572 5562 5551 5541 5533 5524 5518 5513 5509 5506 5504 5503 5502 5501 5501 5503 5503 5502 5503 5502 5501 5500 5500 5501 5504 5509 5511 5515
5696 5679 5657 5613 5637 5624 5613 5619 5665 5649 5647 5640 5634 5632 5627 5620 5612 5604 5594 5582 5570 5561 5550 5539 5527 5517 5509 5504 5502 5500 5498 5496 5495 5493 5493 5492 5493 5495 5496 5497 5498 5497 5498 5498 5498 5500 5504 5506 5508